Voltar ao catálogo

FENGYUN 1C DEB

LostPO
NORAD 46453·DEBRIS·🇨🇳 China

Lançado May 10, 1999 de Taiyuan Satellite Launch Center

Loading…

Próximas Passagens (próximas 24 horas)

TLE

ObsoletoSource: Space-Track

Época: Dec 8, 2022, 20:12 UTC

1 46453U 99025EZJ 22342.84196941  .00003450  00000-0  21836-2 0  9996
2 46453  98.3938 199.5862 0166604 274.0726 146.7274 13.98013951467676

Acompanhe FENGYUN 1C DEB em tempo real com AllMySat

Download on the App Store